• In Belarus
  • List of Countries
  • For 7 days
  • Water Temperature
  • Satellite Maps
  • Weather Map
  • Weather Widgets
  • user-avatar
    Login

    Hourly Weather Chhibramau

    Today, 25 March, Monday

    Time Temperature Precipitation Wind Pressure Humidity
    00:00 +26°C° 0 mm 2 mps 743 mmHg 33%
    01:00 +25°C° 0 mm 2 mps 743 mmHg 35%
    02:00 +25°C° 0 mm 2 mps 743 mmHg 38%
    03:00 +24°C° 0 mm 1 mps 743 mmHg 38%
    04:00 +22°C° 0 mm 0 mps 743 mmHg 39%
    05:00 +22°C° 0 mm 0 mps 743 mmHg 40%
    06:00 +23°C° 0 mm 0 mps 744 mmHg 38%
    07:00 +24°C° 0 mm 0 mps 744 mmHg 36%
    08:00 +25°C° 0 mm 0 mps 745 mmHg 35%
    09:00 +29°C° 0 mm 1 mps 745 mmHg 32%
    10:00 +30°C° 0 mm 2 mps 745 mmHg 29%
    11:00 +32°C° 0 mm 2 mps 745 mmHg 25%
    12:00 +34°C° 0 mm 2 mps 744 mmHg 24%
    13:00 +35°C° 0 mm 2 mps 744 mmHg 23%
    14:00 +36°C° 0 mm 2 mps 743 mmHg 21%
    15:00 +35°C° 0 mm 3 mps 743 mmHg 23%
    16:00 +35°C° 0 mm 3 mps 742 mmHg 25%
    17:00 +34°C° 0 mm 3 mps 742 mmHg 27%
    18:00 +31°C° 0.1 mm 3 mps 742 mmHg 31%
    19:00 +29°C° 0.1 mm 2 mps 743 mmHg 35%
    20:00 +28°C° 0.1 mm 2 mps 743 mmHg 39%
    21:00 +27°C° 0.1 mm 2 mps 743 mmHg 40%
    22:00 +27°C° 0.1 mm 1 mps 743 mmHg 41%
    23:00 +26°C° 0.1 mm 1 mps 743 mmHg 42%

    Tomorrow, 26 March, Tuesday

    Time Temperature Precipitation Wind Pressure Humidity
    00:00 +25°C° 0.5 mm 1 mps 743 mmHg 47%
    01:00 +24°C° 0.5 mm 1 mps 743 mmHg 52%
    02:00 +23°C° 0.5 mm 1 mps 743 mmHg 57%
    03:00 +23°C° 0.7 mm 1 mps 743 mmHg 61%
    04:00 +21°C° 0.7 mm 2 mps 743 mmHg 66%
    05:00 +20°C° 0.7 mm 2 mps 744 mmHg 70%
    06:00 +21°C° 0.3 mm 2 mps 745 mmHg 65%
    07:00 +22°C° 0.3 mm 3 mps 745 mmHg 60%
    08:00 +25°C° 0.3 mm 4 mps 746 mmHg 55%
    09:00 +27°C° 0 mm 3 mps 746 mmHg 48%
    10:00 +29°C° 0 mm 3 mps 746 mmHg 42%
    11:00 +31°C° 0 mm 2 mps 746 mmHg 35%
    12:00 +33°C° 0 mm 3 mps 746 mmHg 32%
    13:00 +34°C° 0 mm 3 mps 745 mmHg 29%
    14:00 +34°C° 0 mm 3 mps 745 mmHg 26%
    15:00 +34°C° 0 mm 3 mps 744 mmHg 26%
    16:00 +33°C° 0 mm 3 mps 744 mmHg 27%
    17:00 +33°C° 0 mm 3 mps 744 mmHg 27%
    18:00 +30°C° 0 mm 3 mps 744 mmHg 29%
    19:00 +29°C° 0 mm 3 mps 744 mmHg 31%
    20:00 +27°C° 0 mm 2 mps 745 mmHg 32%
    21:00 +27°C° 0 mm 2 mps 745 mmHg 33%
    22:00 +26°C° 0 mm 2 mps 745 mmHg 33%
    23:00 +25°C° 0 mm 2 mps 745 mmHg 34%

    Day after tomorrow, 27 March, Wednesday

    Time Temperature Precipitation Wind Pressure Humidity
    00:00 +25°C° 0 mm 2 mps 745 mmHg 34%
    01:00 +24°C° 0 mm 2 mps 745 mmHg 34%
    02:00 +24°C° 0 mm 2 mps 744 mmHg 35%
    03:00 +23°C° 0 mm 2 mps 744 mmHg 36%
    04:00 +23°C° 0 mm 1 mps 744 mmHg 38%
    05:00 +22°C° 0 mm 1 mps 744 mmHg 39%
    06:00 +24°C° 0 mm 1 mps 745 mmHg 37%
    07:00 +25°C° 0 mm 2 mps 746 mmHg 35%
    08:00 +26°C° 0 mm 2 mps 747 mmHg 33%
    09:00 +28°C° 0 mm 2 mps 747 mmHg 29%
    10:00 +30°C° 0 mm 2 mps 747 mmHg 24%
    11:00 +34°C° 0 mm 3 mps 747 mmHg 19%
    12:00 +35°C° 0 mm 3 mps 746 mmHg 17%
    13:00 +36°C° 0 mm 4 mps 745 mmHg 15%
    14:00 +37°C° 0 mm 4 mps 745 mmHg 13%
    15:00 +36°C° 0 mm 4 mps 744 mmHg 15%
    16:00 +35°C° 0 mm 3 mps 744 mmHg 16%
    17:00 +35°C° 0 mm 3 mps 743 mmHg 18%
    18:00 +32°C° 0 mm 2 mps 744 mmHg 19%
    19:00 +30°C° 0 mm 2 mps 744 mmHg 21%
    20:00 +28°C° 0 mm 1 mps 745 mmHg 22%
    21:00 +28°C° 0 mm 1 mps 745 mmHg 23%
    22:00 +27°C° 0 mm 1 mps 745 mmHg 24%
    23:00 +27°C° 0 mm 1 mps 745 mmHg 25%

    28 March, Thursday

    Time Temperature Precipitation Wind Pressure Humidity
    00:00 +26°C° 0 mm 1 mps 745 mmHg 26%
    01:00 +26°C° 0 mm 1 mps 744 mmHg 27%
    02:00 +26°C° 0 mm 1 mps 744 mmHg 28%
    03:00 +25°C° 0 mm 1 mps 743 mmHg 29%
    04:00 +25°C° 0 mm 2 mps 743 mmHg 29%
    05:00 +24°C° 0 mm 2 mps 743 mmHg 30%
    06:00 +26°C° 0 mm 2 mps 744 mmHg 28%
    07:00 +28°C° 0 mm 2 mps 745 mmHg 27%
    08:00 +29°C° 0 mm 2 mps 745 mmHg 25%
    09:00 +31°C° 0 mm 2 mps 745 mmHg 22%
    10:00 +35°C° 0 mm 2 mps 745 mmHg 20%
    11:00 +37°C° 0 mm 3 mps 745 mmHg 17%
    12:00 +38°C° 0 mm 3 mps 744 mmHg 16%
    13:00 +40°C° 0 mm 4 mps 743 mmHg 15%
    14:00 +41°C° 0 mm 4 mps 742 mmHg 15%
    15:00 +39°C° 0 mm 3 mps 742 mmHg 16%
    16:00 +39°C° 0 mm 3 mps 742 mmHg 18%
    17:00 +38°C° 0 mm 2 mps 741 mmHg 20%
    18:00 +36°C° 0 mm 2 mps 742 mmHg 21%
    19:00 +33°C° 0 mm 1 mps 742 mmHg 23%
    20:00 +32°C° 0 mm 1 mps 742 mmHg 25%
    21:00 +31°C° 0 mm 1 mps 742 mmHg 26%
    22:00 +30°C° 0 mm 1 mps 742 mmHg 27%
    23:00 +30°C° 0 mm 1 mps 742 mmHg 27%

    29 March, Friday

    Time Temperature Precipitation Wind Pressure Humidity
    00:00 +29°C° 0 mm 1 mps 742 mmHg 28%
    01:00 +27°C° 0 mm 0 mps 741 mmHg 29%
    02:00 +26°C° 0 mm 0 mps 741 mmHg 30%
    03:00 +26°C° 0 mm 0 mps 741 mmHg 31%
    04:00 +25°C° 0 mm 0 mps 741 mmHg 31%
    05:00 +25°C° 0 mm 0 mps 741 mmHg 32%
    06:00 +27°C° 0 mm 0 mps 742 mmHg 30%
    07:00 +30°C° 0 mm 1 mps 742 mmHg 28%
    08:00 +32°C° 0 mm 1 mps 743 mmHg 26%
    09:00 +34°C° 0 mm 1 mps 743 mmHg 23%
    10:00 +37°C° 0 mm 2 mps 743 mmHg 20%
    11:00 +39°C° 0 mm 3 mps 743 mmHg 17%
    12:00 +40°C° 0 mm 3 mps 742 mmHg 16%
    13:00 +42°C° 0 mm 4 mps 741 mmHg 15%
    14:00 +43°C° 0 mm 5 mps 740 mmHg 13%
    15:00 +43°C° 0 mm 4 mps 740 mmHg 14%
    16:00 +42°C° 0 mm 3 mps 740 mmHg 15%
    17:00 +40°C° 0 mm 2 mps 739 mmHg 17%
    18:00 +38°C° 0 mm 2 mps 740 mmHg 18%
    19:00 +36°C° 0 mm 2 mps 740 mmHg 20%
    20:00 +34°C° 0 mm 2 mps 741 mmHg 21%
    21:00 +33°C° 0 mm 1 mps 741 mmHg 22%
    22:00 +32°C° 0 mm 1 mps 741 mmHg 23%
    23:00 +30°C° 0 mm 0 mps 741 mmHg 23%

    30 March, Saturday

    Time Temperature Precipitation Wind Pressure Humidity
    00:00 +29°C° 0 mm 0 mps 741 mmHg 24%
    01:00 +30°C° 0 mm 1 mps 740 mmHg 25%
    02:00 +30°C° 0 mm 1 mps 740 mmHg 26%
    03:00 +29°C° 0 mm 1 mps 740 mmHg 26%
    04:00 +29°C° 0 mm 1 mps 740 mmHg 27%
    05:00 +29°C° 0 mm 1 mps 741 mmHg 28%
    06:00 +30°C° 0 mm 1 mps 741 mmHg 27%
    07:00 +31°C° 0 mm 1 mps 742 mmHg 25%
    08:00 +33°C° 0 mm 1 mps 743 mmHg 24%
    09:00 +35°C° 0 mm 1 mps 743 mmHg 21%
    10:00 +37°C° 0 mm 1 mps 743 mmHg 18%
    11:00 +41°C° 0 mm 1 mps 742 mmHg 16%
    12:00 +41°C° 0 mm 2 mps 742 mmHg 14%
    13:00 +42°C° 0 mm 2 mps 741 mmHg 13%
    14:00 +44°C° 0 mm 3 mps 740 mmHg 12%
    15:00 +43°C° 0 mm 3 mps 740 mmHg 13%
    16:00 +43°C° 0 mm 3 mps 740 mmHg 14%
    17:00 +42°C° 0 mm 3 mps 740 mmHg 15%
    18:00 +39°C° 0 mm 3 mps 740 mmHg 17%
    19:00 +37°C° 0 mm 3 mps 740 mmHg 19%
    20:00 +35°C° 0 mm 3 mps 740 mmHg 21%
    21:00 +35°C° 0 mm 2 mps 740 mmHg 21%
    22:00 +34°C° 0 mm 2 mps 740 mmHg 22%
    23:00 +33°C° 0 mm 1 mps 740 mmHg 22%
    Show more